Location: Kunchanapalle
(16.4623°N, 80.6176°E)
Time: 09:15:48
(UTC+00:00)

Centaur AC-72 - Pass Details

Date: 13 August 2020
Orbit: 1139 x 35217 km, 19.1° (Epoch: 18 September)

Event Time Altitude Azimuth Distance (km) Brightness Sun altitude
Exits shadow 22:25:57 51° 282° (WNW) 1,436 3.0 -26.8°
Maximum altitude 22:27:40 89° 9° (N) 1,246 2.9 -26.4°
Drops below altitude 10° 22:38:05 10° 101° (E) 5,338 7.0 -24.2°
Sets 22:45:07 0° 101° (ESE) 8,285 8.1 -22.6°
